TimeCST,TemperatureF,Dew PointF,Humidity,Sea Level PressureIn,VisibilityMPH,Wind Direction,Wind SpeedMPH,Gust SpeedMPH,PrecipitationIn,Events,Conditions,WindDirDegrees,DateUTC
12:14 AM,39.2,32.0,75,30.08,10.0,SE,3.5,-,N/A,,Clear,140,2012-11-15 06:14:00
12:33 AM,37.4,30.2,75,30.08,10.0,Calm,Calm,-,N/A,,Clear,0,2012-11-15 06:33:00
12:53 AM,37.4,30.2,75,30.07,10.0,SSE,3.5,-,N/A,,Clear,150,2012-11-15 06:53:00
1:14 AM,35.6,30.2,81,30.07,10.0,SSE,4.6,-,N/A,,Clear,160,2012-11-15 07:14:00
1:33 AM,37.4,30.2,75,30.07,10.0,SSE,3.5,-,N/A,,Scattered Clouds,160,2012-11-15 07:33:00
1:53 AM,37.4,30.2,75,30.07,10.0,SSE,4.6,-,N/A,,Scattered Clouds,160,2012-11-15 07:53:00
2:13 AM,35.6,30.2,81,30.08,10.0,SSW,4.6,-,N/A,,Clear,200,2012-11-15 08:13:00
2:53 AM,32.0,28.4,87,30.09,10.0,Calm,Calm,-,N/A,,Clear,0,2012-11-15 08:53:00
3:13 AM,30.2,26.6,86,30.09,10.0,Calm,Calm,-,N/A,,Clear,0,2012-11-15 09:13:00
3:33 AM,28.4,26.6,93,30.09,10.0,Calm,Calm,-,N/A,,Clear,0,2012-11-15 09:33:00
3:53 AM,28.4,26.6,93,30.10,7.0,WNW,3.5,-,N/A,,Clear,290,2012-11-15 09:53:00
4:14 AM,26.6,24.8,93,30.11,7.0,West,3.5,-,N/A,,Clear,280,2012-11-15 10:14:00
4:34 AM,26.6,24.8,93,30.12,5.0,West,4.6,-,N/A,,Clear,280,2012-11-15 10:34:00
4:54 AM,26.6,24.8,93,30.13,5.0,West,5.8,-,N/A,,Clear,280,2012-11-15 10:54:00
5:14 AM,26.6,26.6,100,30.13,5.0,WNW,5.8,-,N/A,,Clear,290,2012-11-15 11:14:00
5:33 AM,26.6,24.8,93,30.14,5.0,West,4.6,-,N/A,,Clear,270,2012-11-15 11:33:00
5:53 AM,28.4,26.6,93,30.15,7.0,NW,5.8,-,N/A,,Clear,310,2012-11-15 11:53:00
6:13 AM,28.4,26.6,93,30.16,10.0,NW,3.5,-,N/A,,Clear,310,2012-11-15 12:13:00
6:34 AM,30.2,28.4,93,30.17,10.0,NW,6.9,-,N/A,,Clear,320,2012-11-15 12:34:00
6:53 AM,33.8,30.2,87,30.19,10.0,NW,9.2,-,N/A,,Clear,320,2012-11-15 12:53:00
7:13 AM,33.8,30.2,87,30.20,10.0,NW,11.5,-,N/A,,Clear,320,2012-11-15 13:13:00
7:33 AM,33.8,30.2,87,30.22,10.0,NW,11.5,-,N/A,,Clear,320,2012-11-15 13:33:00
7:53 AM,33.8,30.2,87,30.23,10.0,NW,11.5,-,N/A,,Clear,320,2012-11-15 13:53:00
8:13 AM,33.8,30.2,87,30.24,10.0,NW,15.0,-,N/A,,Clear,320,2012-11-15 14:13:00
8:33 AM,33.8,28.4,81,30.26,10.0,NNW,13.8,-,N/A,,Clear,330,2012-11-15 14:33:00
8:53 AM,35.6,28.4,75,30.27,10.0,NNW,16.1,21.9,N/A,,Clear,330,2012-11-15 14:53:00
9:13 AM,35.6,28.4,75,30.28,10.0,NNW,15.0,24.2,N/A,,Clear,330,2012-11-15 15:13:00
9:33 AM,35.6,28.4,75,30.29,10.0,NNW,17.3,-,N/A,,Clear,340,2012-11-15 15:33:00
9:54 AM,35.6,28.4,75,30.30,10.0,NNW,15.0,-,N/A,,Clear,330,2012-11-15 15:54:00
10:13 AM,37.4,28.4,70,30.31,10.0,NNW,18.4,-,N/A,,Clear,330,2012-11-15 16:13:00
10:33 AM,37.4,28.4,70,30.32,10.0,NNW,17.3,20.7,N/A,,Clear,330,2012-11-15 16:33:00
10:54 AM,37.4,28.4,70,30.33,10.0,NNW,12.7,20.7,N/A,,Clear,340,2012-11-15 16:54:00
11:13 AM,39.2,28.4,65,30.34,10.0,NNW,13.8,19.6,N/A,,Clear,330,2012-11-15 17:13:00
11:33 AM,39.2,26.6,61,30.34,10.0,NNW,12.7,19.6,N/A,,Clear,340,2012-11-15 17:33:00
11:53 AM,39.2,26.6,61,30.34,10.0,NNW,15.0,20.7,N/A,,Clear,340,2012-11-15 17:53:00
12:13 PM,39.2,26.6,61,30.35,10.0,NNW,17.3,-,N/A,,Clear,340,2012-11-15 18:13:00
12:33 PM,41.0,24.8,53,30.35,10.0,NNW,17.3,-,N/A,,Clear,330,2012-11-15 18:33:00
12:53 PM,41.0,24.8,53,30.36,10.0,NNW,19.6,24.2,N/A,,Clear,330,2012-11-15 18:53:00
1:14 PM,41.0,24.8,53,30.36,10.0,NNW,17.3,23.0,N/A,,Clear,330,2012-11-15 19:14:00
1:33 PM,39.2,21.2,49,30.37,10.0,NNW,20.7,25.3,N/A,,Clear,340,2012-11-15 19:33:00
1:53 PM,39.2,19.4,45,30.37,10.0,NNW,21.9,-,N/A,,Clear,330,2012-11-15 19:53:00
2:13 PM,39.2,19.4,45,30.37,10.0,NNW,21.9,26.5,N/A,,Clear,340,2012-11-15 20:13:00
2:34 PM,39.2,19.4,45,30.38,10.0,NNW,20.7,-,N/A,,Clear,340,2012-11-15 20:34:00
2:53 PM,39.2,19.4,45,30.38,10.0,North,18.4,24.2,N/A,,Clear,350,2012-11-15 20:53:00
3:13 PM,39.2,17.6,42,30.39,10.0,North,17.3,-,N/A,,Clear,350,2012-11-15 21:13:00
3:33 PM,37.4,17.6,45,30.40,10.0,NNW,17.3,-,N/A,,Clear,340,2012-11-15 21:33:00
3:53 PM,37.4,17.6,45,30.40,10.0,NNW,11.5,-,N/A,,Clear,340,2012-11-15 21:53:00
4:13 PM,35.6,19.4,52,30.41,10.0,NNW,11.5,-,N/A,,Clear,340,2012-11-15 22:13:00
4:33 PM,35.6,19.4,52,30.42,10.0,NNW,9.2,-,N/A,,Clear,340,2012-11-15 22:33:00
4:53 PM,32.0,19.4,60,30.43,10.0,NNW,8.1,-,N/A,,Clear,330,2012-11-15 22:53:00
5:13 PM,30.2,19.4,64,30.43,10.0,NNW,5.8,-,N/A,,Clear,330,2012-11-15 23:13:00
5:33 PM,28.4,19.4,69,30.44,10.0,NNW,6.9,-,N/A,,Clear,330,2012-11-15 23:33:00
5:53 PM,28.4,19.4,69,30.44,10.0,NNW,5.8,-,N/A,,Clear,330,2012-11-15 23:53:00
6:14 PM,26.6,19.4,74,30.44,10.0,NNW,4.6,-,N/A,,Clear,340,2012-11-16 00:14:00
6:33 PM,26.6,19.4,74,30.45,10.0,NNW,4.6,-,N/A,,Clear,340,2012-11-16 00:33:00
6:54 PM,26.6,19.4,74,30.45,10.0,NNW,6.9,-,N/A,,Clear,330,2012-11-16 00:54:00
7:14 PM,26.6,19.4,74,30.45,10.0,NW,5.8,-,N/A,,Clear,320,2012-11-16 01:14:00
7:33 PM,23.0,17.6,80,30.45,10.0,NW,4.6,-,N/A,,Clear,310,2012-11-16 01:33:00
7:53 PM,23.0,19.4,86,30.45,10.0,NW,6.9,-,N/A,,Clear,320,2012-11-16 01:53:00
8:14 PM,21.2,17.6,86,30.45,10.0,NW,4.6,-,N/A,,Clear,320,2012-11-16 02:14:00
8:33 PM,19.4,17.6,93,30.45,10.0,NW,6.9,-,N/A,,Clear,320,2012-11-16 02:33:00
8:53 PM,19.4,15.8,86,30.46,10.0,NW,5.8,-,N/A,,Clear,310,2012-11-16 02:53:00
9:13 PM,19.4,15.8,86,30.46,10.0,WNW,3.5,-,N/A,,Clear,290,2012-11-16 03:13:00
9:33 PM,19.4,15.8,86,30.47,10.0,NW,4.6,-,N/A,,Clear,320,2012-11-16 03:33:00
9:53 PM,17.6,15.8,93,30.47,10.0,NW,3.5,-,N/A,,Clear,310,2012-11-16 03:53:00
10:13 PM,17.6,14.0,86,30.47,10.0,West,3.5,-,N/A,,Clear,280,2012-11-16 04:13:00
10:33 PM,17.6,15.8,93,30.47,10.0,WNW,3.5,-,N/A,,Clear,290,2012-11-16 04:33:00
10:53 PM,17.6,15.8,93,30.48,10.0,WNW,3.5,-,N/A,,Clear,290,2012-11-16 04:53:00
11:13 PM,17.6,15.8,93,30.49,10.0,Calm,Calm,-,N/A,,Clear,0,2012-11-16 05:13:00
11:33 PM,17.6,15.8,93,30.49,10.0,WNW,3.5,-,N/A,,Clear,290,2012-11-16 05:33:00
11:53 PM,17.6,15.8,93,30.50,10.0,Calm,Calm,-,N/A,,Clear,0,2012-11-16 05:53:00